Погода в Кутише

Россия / Республика Дагестан     42°25′24″N   47°16′54″E
темп.,
°C
ветер,
м/с
пор.,
м/с
влажн.,
%
обл.,
%
осадки,
мм/ч
давл.,
гПа
погр.,
м
25 февраля, чт
чт2500:00−10ююз11580 0.0 104145
03:00−10ююз12510 0.0 103942
06:00−10юз22340 0.0 103828
09:00−7юз111939 0.0 1037132
12:00−2ссз111433 0.0 1036445
15:000св112117 0.0 1033552
18:00−4ююв00436 0.0 103321
21:00−4юз124116 0.0 103326
26 февраля, пт
пт2600:00−4юз2250100 0.0 103073
03:00−4зюз1149100 0.0 102930
06:00−4юз114884 0.0 102824
09:00−2зюз224092 0.0 1027230
12:00+2зсз2343100 0.0 1026694
15:00+3ссв224498 0.0 1024642
18:00−2всв116147 0.0 102521
21:00−2з116370 0.0 102521
27 февраля, сб
сб2700:00−2юз1170100 0.0 102421
03:00−3юз117554 0.0 102322
06:00−3юз22730 0.0 102223
09:000юз21520 0.0 1021233
12:00+4в22430 0.0 1019854
15:00+4всв32520 0.0 1017771
18:000в12790 0.0 101724
21:00−1ююз11770 0.0 101621
28 февраля, вс
вс2800:00−1юз22720 0.0 101528
03:00−2юз22600 0.0 101429
06:00−2юз22480 0.0 101332
09:00+1юз22340 0.0 1013195
12:00+5всв33420 0.0 1012810
15:00+2св33764 0.0 1013495
18:00−1ссв229381 0.2 1015189
21:00−2св229590 1.4 1018172
1 марта, пн
пн100:00−2св1197100 1.2 1019130
03:00−3св1197100 2.3 1020125
06:00−3св2296100 1.6 1022146
09:00−3св2391100 3.1 1023485
12:00−2св3384100 0.6 1024576
15:00−2всв3392100 1.7 1025382
18:00−4всв2295100 0.9 1026176
21:00−5юв119396 1.0 102829